Retour au catalogue

STARLINK-37429

ActifCommunicationsVLEO
NORAD 69523·PAYLOAD·🇺🇸 United States

Lancé Jun 12, 2026 depuis Cape Canaveral Space Force Station

Loading…

Prochains Passages (prochaines 24 heures)

TLE

FraisSource: CelesTrak SupGP

Époque: Sep 14, 2026, 22:41 UTC

1 69523C 26133R   26257.94562500  .00046647  00000+0  13783-2 0  2570
2 69523  53.1565 255.5360 0001211  90.4640 261.5440 15.34364315    14

Suivez STARLINK-37429 en temps réel avec AllMySat

Download on the App Store